Flag for U.S.A. Weather past 2 weeks in Louisville, Kentucky, U.S.A.

Now
78 °F

Partly cloudy.


Feels Like: 80 °F
Forecast: 59 / 78 °F
Wind: 5 mph from Southwest

Location: Standiford Field

Current Time: Sep 20, 2014 at 10:05:10 PM

Latest Report: Sep 20, 2014 at 8:56 PM


Visibility: 10 mi

Pressure: 29.96 "Hg

Humidity: 64%

Dew point: 65 °F

Location of LouisvilleLocation

Historic Weather in Louisville — Graph

°F

Louisville temperature yesterday

Maximum temperature yesterday: 79 °F (at 3:56 PM)
Minimum temperature yesterday: 56 °F (at 7:56 AM)
Average temperature yesterday: 68 °F

Past Weeks' High & Low Weather Summary

 TemperatureHumidityPressure
High87 °F (Sep 6, 2:56 PM)93% (Sep 11, 1:56 AM)30.30 "Hg (Sep 11, 1:56 AM)
Low50 °F (Sep 14, 6:56 AM)35% (Sep 7, 2:56 PM)29.78 "Hg (Sep 10, 7:56 PM)
Average68 °F69%30.07 "Hg
* Reported Sep 5 8:56 PM — Sep 20 8:56 PM, Louisville, Weather by CustomWeather, © 2014

Note: Actual official high and low records may vary slightly from our data, if they occured in-between our weather recording intervals... More about our weather records

Advertising

Louisville weather history for previous 24 hours

 ConditionsComfort  
Time TempWeatherWind HumidityBarometerVisibility
8:56 PM
Sep 20
78 °FPartly cloudy.5 mph64%29.96 "Hg10 mi
7:56 PM78 °FBroken clouds.6 mph64%29.94 "Hg10 mi
6:56 PM81 °FBroken clouds.8 mph58%29.92 "Hg10 mi
5:56 PM83 °FScattered clouds.13 mph55%29.94 "Hg10 mi
4:56 PM84 °FBroken clouds.12 mph53%29.96 "Hg10 mi
3:56 PM83 °FBroken clouds.12 mph57%29.98 "Hg10 mi
2:56 PM83 °FBroken clouds.12 mph57%30.01 "Hg10 mi
1:56 PM81 °FMostly cloudy.13 mph60%30.03 "Hg10 mi
8:56 AM71 °FScattered clouds.10 mph76%30.09 "Hg10 mi
7:56 AM69 °FPassing clouds.10 mph79%30.07 "Hg10 mi
6:56 AM64 °FPassing clouds.5 mph84%30.06 "Hg10 mi
5:56 AM62 °FPassing clouds.3 mph86%30.06 "Hg9 mi
4:56 AM64 °FPassing clouds.6 mph81%30.03 "Hg9 mi
3:56 AM63 °FPassing clouds.7 mph84%30.03 "Hg9 mi
2:56 AM64 °FPassing clouds.5 mph81%30.04 "Hg9 mi
1:56 AM64 °FPassing clouds.5 mph78%30.05 "Hg10 mi
12:56 AM66 °FPassing clouds.3 mph73%30.06 "Hg10 mi
11:56 PM
Sep 19
68 °FPassing clouds.No wind65%30.06 "Hg10 mi
10:56 PM68 °FOvercast.3 mph65%30.06 "Hg10 mi
Weather by CustomWeather, © 2014

See weather overviewHow to use our weather pages